Hourly Data Report for May 22, 2020

All times are specified in Local Standard Time (LST). Add 1 hour to adjust for Daylight Saving Time where and when it is observed.

OTTAWA INTL A
ONTARIO
Current Station Operator: NAVCAN

45°19'00.000" N
75°40'00.000" W
114.90 m
6106001
71628
YOW

Download Data

Hourly Data (May 2020)
Hourly Data Report for May 22, 2020
TIME Temp Definition
°C
Dew Point Definition
°C
Rel Hum Definition
%
Wind Dir Definition
10's deg

Wind Spd Definition
km/h
Visibility Definition
km
Stn Press Definition
kPa
Hmdx Definition


Wind Chill Definition


Weather Definition


00:00 11.8 -3.3 35 22 7 24.1 100.61     LegendNANA
01:00 11.9 -1.6 39 20 12 24.1 100.59     Clear
02:00 10.7 -1.0 44 23 13 24.1 100.54     LegendNANA
03:00 10.3 -1.2 45 23 10 24.1 100.53     LegendNANA
04:00 9.2 -0.4 51 22 13 24.1 100.49     Mainly Clear
05:00 9.6 0.3 52 21 14 24.1 100.52     LegendNANA
06:00 12.3 0.8 45 23 14 24.1 100.56     LegendNANA
07:00 16.4 1.3 36 26 14 24.1 100.56     Mainly Clear
08:00 19.5 3.0 33 25 14 24.1 100.54     LegendNANA
09:00 21.5 7.2 39 29 14 24.1 100.50     LegendNANA
10:00 23.7 6.2 32 27 10 24.1 100.47     Mainly Clear
11:00 25.4 6.6 30 24 10 24.1 100.42 25   LegendNANA
12:00 25.8 5.3 26 24 8 24.1 100.35 25   LegendNANA
13:00 26.9 4.7 24 18 16 24.1 100.27 26   Clear
14:00 27.3 2.6 20 22 7 24.1 100.21 26   LegendNANA
15:00 27.7 2.0 19 22 9 24.1 100.15 26   LegendNANA
16:00 28.3 4.4 21 22 13 24.1 100.12 27   Clear
17:00 27.8 4.3 22 20 12 24.1 100.07 27   LegendNANA
18:00 26.9 5.9 26 20 9 24.1 100.05 27   LegendNANA
19:00 24.6 3.8 26 18 12 24.1 100.04     Mainly Clear
20:00 22.3 3.1 28 19 8 24.1 100.08     LegendNANA
21:00 20.1 4.4 35 20 12 24.1 100.10     LegendNANA
22:00 19.0 6.0 42 23 8 24.1 100.12     Clear
23:00 17.0 6.6 50 26 10 24.1 100.14     LegendNANA

Notes on Data Quality.

Legend

  • E = Estimated
  • M = Missing
  • NA = Not Available*
  • [empty] = Indicates an unobserved value
Date modified: